[[{"header":{"parameterUnit":"m.s-1","parameterCategory":1,"la1":30.2991,"la2":30.254,"lo1":-89.0895,"lo2":-89.0444,"dy":0.0017,"dx":0.0017,"nx":28,"ny":28,"refTime":"2023-04-29T21:00:00:Z","depth":0,"parameterNumber":2,"parameterNumberName":"U-component_of_WINDS"},"data":[0,0,0,0,0,0,0,0,0,0,0,0,0,0,0,0,0,0,0,0,0,0,0,0,0,0,0,0,0,0,0,0,0,0,0,0,0,0,0,0,0,0,0,0,0,0,0,0,0,0,0,0,0,0,0,0,0,0,5.3633,5.3633,0,5.3631,5.3631,5.3631,5.348,5.3476,5.3472,5.3469,5.3469,5.3472,5.3476,0,0,0,0,0,0,0,0,0,0,0,0,0,5.351,5.3513,5.3633,5.3633,5.3633,5.3631,5.3631,5.3631,5.3481,5.3476,5.3471,5.3467,5.3467,5.3472,5.3476,0,0,0,0,0,0,0,0,0,0,0,0,0,5.3541,5.3514,5.3633,5.3558,5.3551,5.3631,5.3631,5.3631,5.3482,5.3476,5.347,5.3465,5.3466,5.3471,5.3477,5.3629,0,0,5.3493,5.3496,0,0,0,0,0,0,0,0,5.354,5.3546,5.3569,5.3563,5.3556,5.355,5.3587,5.363,5.3483,5.3508,5.3469,5.3462,5.3501,5.3503,5.3515,5.3629,5.3629,5.3494,5.3497,5.35,5.3501,0,0,0,0,0,0,0,5.3538,5.3545,5.3632,5.357,5.3562,5.3525,5.3523,5.3595,5.3538,5.3506,5.3495,5.3496,5.3496,5.351,5.3514,5.3629,5.3494,5.3499,5.3502,5.3504,5.3867,5.3873,0,0,0,0,0,0,5.3545,5.3544,5.3632,5.3632,5.3533,5.3532,5.353,5.3558,5.3536,5.3527,5.3502,5.3489,5.3504,5.3508,5.3514,5.3691,5.35,5.3505,5.3508,5.3861,5.3869,5.3876,0,0,0,0,0,0,5.3543,5.3555,5.3632,5.3585,5.3592,5.354,5.3573,5.3561,5.3575,5.3533,5.3522,5.3527,5.3499,5.3506,5.3601,5.3689,5.3507,5.3512,5.3854,5.3863,5.3872,5.4047,0,0,0,0,0,0,5.354,5.3555,5.3612,5.3588,5.3596,5.372,5.3579,5.3565,5.3585,5.3569,5.3554,5.3546,5.3495,5.3594,5.3607,5.3693,5.3517,5.3846,5.3858,5.3869,5.4033,5.4061,5.4085,0,0,0,0,0,5.3537,5.3661,5.3615,5.3627,5.3665,5.3725,5.373,5.3668,5.3593,5.365,5.3623,5.3547,5.3677,5.3605,5.3618,5.3708,5.384,5.3854,5.3868,5.4021,5.4056,5.4085,0,0,0,0,0,0,5.3698,5.3657,5.3605,5.3726,5.373,5.37,5.377,5.3707,5.3733,5.3717,5.364,5.3638,5.3746,5.3736,5.3656,5.3854,5.3745,5.3763,5.3857,5.3889,5.3915,5.3915,5.3521,0,0,0,0,0,5.3747,5.3799,5.376,5.3871,5.3875,5.3823,5.3847,5.3799,5.38,5.3802,5.3781,5.3787,5.3828,5.3858,5.3894,5.403,5.4025,5.4098,5.4124,5.4146,5.4163,5.4235,5.4267,5.3923,5.3922,5.3922,0,0,5.385,5.3834,5.3872,5.3903,5.39,5.3956,5.3825,5.389,5.3931,5.3811,5.39,5.3886,5.3886,5.4003,5.4054,5.3998,5.4257,5.4164,5.4182,5.4187,5.4253,5.4286,5.4315,5.3932,5.393,5.3929,0,0,5.4067,5.406,5.4151,5.4151,5.4149,5.4113,5.4135,5.4115,5.41,5.4188,5.41,5.4148,5.4221,5.4226,5.4238,5.4456,5.4387,5.447,5.4607,5.4678,5.4705,5.4729,5.4808,5.4837,5.4486,5.4487,5.4487,0,5.4196,5.4276,5.4206,5.4277,5.4293,5.4187,5.4279,5.4283,5.4294,5.4308,5.4245,5.4336,5.4328,5.4445,5.4499,5.4511,5.4535,5.4472,5.4707,5.473,5.4751,5.4825,5.4855,5.4497,5.4496,5.4495,5.4494,0,5.4435,5.4492,5.4565,5.4578,5.4602,5.4684,5.4627,5.4661,5.4611,5.4582,5.4673,5.4661,5.4693,5.4717,5.4669,5.4827,5.4793,5.472,5.4609,5.4795,5.4864,5.4892,5.4511,5.4508,5.4505,5.4502,0,0,5.4754,5.4726,5.4755,5.4759,5.4749,5.4792,5.4868,5.4899,5.493,5.4941,5.5004,5.5069,5.5001,5.5015,5.4966,5.5028,5.5204,5.4947,5.4946,5.4997,5.5379,5.5435,5.5469,5.5157,5.5162,5.5167,5.5379,0,5.4964,5.5093,5.5033,5.5169,5.5221,5.5121,5.5187,5.5189,5.5164,5.5205,5.5177,5.5225,5.5132,5.5139,5.5196,5.517,5.528,5.5154,5.5217,5.522,5.5221,5.5505,5.5564,5.5765,5.5405,5.541,5.5413,0,5.5227,5.5249,5.539,5.5371,5.539,5.5452,5.5475,5.5515,5.5515,5.5492,5.5508,5.5445,5.552,5.5409,5.5511,5.5427,5.5449,5.544,5.5446,5.5451,5.5329,5.5518,5.5828,5.5859,5.5454,5.5451,5.5448,0,5.5448,5.5512,5.5605,5.5611,5.5591,5.5636,5.563,5.5623,5.5646,5.5667,5.5681,5.571,5.5727,5.5752,5.5699,5.5623,5.5809,5.5693,5.5793,5.5795,5.5838,5.5837,5.6157,5.5851,5.585,5.585,5.5849,0,5.569,5.5782,5.5703,5.5761,5.586,5.579,5.589,5.5872,5.5868,5.5921,5.5835,5.5887,5.5813,5.5857,5.5816,5.5908,5.5916,5.5901,5.5889,5.5909,5.5912,5.5924,5.5909,5.5858,5.5856,5.5854,5.5853,0,5.5954,5.5906,5.6001,5.5973,5.5968,5.6042,5.6019,5.6071,5.604,5.6108,5.612,5.6071,5.6119,5.6068,5.6113,5.6085,5.6209,5.6176,5.621,5.6201,5.6304,5.6296,5.6645,5.6688,5.6353,5.6356,5.6359,0,5.6113,5.6181,5.616,5.6189,5.6187,5.6235,5.6257,5.6191,5.6218,5.6222,5.6275,5.6315,5.6344,5.6426,5.6395,5.6429,5.6397,5.6517,5.6402,5.642,5.6401,5.6398,5.6405,5.6541,5.6545,5.6549,5.6551,0,5.6401,5.6373,5.6408,5.6436,5.6465,5.6483,5.6495,5.6524,5.6454,5.6489,5.6537,5.6559,5.6604,5.6646,5.6671,5.6665,5.6598,5.6587,5.6613,5.6635,5.6652,5.6646,5.6275,5.658,5.6577,5.6575,5.6574,5.6572,5.6618,5.6673,5.6668,5.671,5.6711,5.6724,5.6772,5.6747,5.6785,5.6816,5.6774,5.6834,5.6832,5.6858,5.686,5.6906,5.6855,5.6891,5.6901,5.6911,5.6927,5.6644,5.691,5.6909,5.6908,5.6907,5.6907,0,5.6902,5.6893,5.6933,5.6952,5.6985,5.6917,5.6927,5.696,5.7013,5.7016,5.7046,5.7102,5.7142,5.7114,5.7148,5.719,5.7161,5.7202,5.7199,5.7199,5.697,5.6945,5.7225,5.7225,5.7225,5.7225,5.7225,5.7225,5.7054,5.7145,5.7117,5.7208,5.7198,5.7255,5.7266,5.7278,5.7281,5.7346,5.7379,5.736,5.7351,5.7383,5.7418,5.7408,5.7426,5.7478,5.7459,5.7246,5.7215,5.7185,5.7161,5.7482,5.7483,5.7684,5.7686,5.7687]},{"header":{"parameterUnit":"m.s-1","parameterCategory":1,"la1":30.2991,"la2":30.254,"lo1":-89.0895,"lo2":-89.0444,"dy":0.0017,"dx":0.0017,"nx":28,"ny":28,"refTime":"2023-04-29T21:00:00:Z","depth":0,"parameterNumber":3,"parameterNumberName":"V-component_of_WINDS"},"data":[0,0,0,0,0,0,0,0,0,0,0,0,0,0,0,0,0,0,0,0,0,0,0,0,0,0,0,0,0,0,0,0,0,0,0,0,0,0,0,0,0,0,0,0,0,0,0,0,0,0,0,0,0,0,0,0,0,0,-3.8891,-3.8893,0,-3.9107,-3.911,-3.9112,-3.9153,-3.9151,-3.9149,-3.9148,-3.9373,-3.9381,-3.9388,0,0,0,0,0,0,0,0,0,0,0,0,0,-3.8517,-3.8523,-3.8891,-3.8893,-3.8896,-3.9107,-3.911,-3.9113,-3.9153,-3.9151,-3.9149,-3.9147,-3.9371,-3.938,-3.9389,0,0,0,0,0,0,0,0,0,0,0,0,0,-3.8701,-3.8525,-3.889,-3.8942,-3.8948,-3.9106,-3.911,-3.9114,-3.9154,-3.9151,-3.9148,-3.9146,-3.9368,-3.9379,-3.939,-3.9514,0,0,-3.9425,-3.943,0,0,0,0,0,0,0,0,-3.869,-3.8714,-3.8931,-3.8938,-3.8946,-3.91,-3.9061,-3.9248,-3.9154,-3.9076,-3.9148,-3.9145,-3.9285,-3.9303,-3.935,-3.9524,-3.9534,-3.9426,-3.9433,-3.9438,-3.9441,0,0,0,0,0,0,0,-3.8677,-3.8705,-3.8977,-3.8934,-3.8944,-3.8955,-3.8979,-3.9096,-3.9193,-3.9083,-3.9086,-3.9111,-3.9289,-3.9338,-3.9355,-3.9537,-3.9426,-3.9436,-3.9443,-3.9448,-3.9825,-3.9828,0,0,0,0,0,0,-3.8655,-3.8694,-3.897,-3.8983,-3.8809,-3.8964,-3.899,-3.9054,-3.9191,-3.921,-3.9113,-3.9112,-3.932,-3.9342,-3.9363,-3.9517,-3.9438,-3.9449,-3.9455,-3.9822,-3.9826,-3.9829,0,0,0,0,0,0,-3.8647,-3.8679,-3.8961,-3.884,-3.8877,-3.8973,-3.9044,-3.9059,-3.9109,-3.9214,-3.9232,-3.9146,-3.9319,-3.9347,-3.9476,-3.9525,-3.9454,-3.9464,-3.9818,-3.9823,-3.9827,-3.9824,0,0,0,0,0,0,-3.8636,-3.8676,-3.8722,-3.884,-3.8883,-3.9068,-3.9047,-3.9065,-3.9128,-3.9129,-3.925,-3.9267,-3.9319,-3.9459,-3.9487,-3.954,-3.9473,-3.9814,-3.982,-3.9826,-3.9821,-3.9828,-3.9835,0,0,0,0,0,-3.8622,-3.8714,-3.8725,-3.8758,-3.8943,-3.9071,-3.9096,-3.9152,-3.9132,-3.9181,-3.9248,-3.9264,-3.9515,-3.9471,-3.9504,-3.9561,-3.9811,-3.9819,-3.9825,-3.9817,-3.9827,-3.9835,0,0,0,0,0,0,-3.86,-3.873,-3.8744,-3.8876,-3.8962,-3.9078,-3.914,-3.916,-3.9255,-3.9252,-3.9319,-3.9346,-3.9471,-3.9529,-3.9478,-3.9688,-3.9662,-3.9676,-3.9645,-3.9655,-3.9662,-3.9645,-3.9483,0,0,0,0,0,-3.8611,-3.8702,-3.8812,-3.8918,-3.896,-3.9043,-3.9101,-3.9137,-3.9229,-3.9266,-3.9344,-3.9434,-3.9534,-3.9598,-3.9695,-3.983,-3.9857,-3.9885,-3.9892,-3.9898,-3.9909,-3.9985,-3.9999,-3.9852,-3.9852,-3.9852,0,0,-3.8633,-3.8716,-3.877,-3.8916,-3.8986,-3.9081,-3.9073,-3.9174,-3.9245,-3.9282,-3.9408,-3.9468,-3.9573,-3.9705,-3.9768,-3.9758,-3.9956,-3.9907,-3.991,-3.9919,-3.9994,-4.0007,-4.002,-3.9857,-3.9856,-3.9855,0,0,-3.8723,-3.8794,-3.889,-3.8961,-3.9069,-3.9123,-3.9146,-3.926,-3.93,-3.9428,-3.9457,-3.9544,-3.9714,-3.9788,-3.9848,-3.9967,-3.9985,-3.9997,-4.0035,-4.0108,-4.012,-4.013,-4.0173,-4.0187,-4.0008,-4.0008,-4.0008,0,-3.8737,-3.888,-3.8938,-3.9037,-3.9101,-3.9137,-3.9236,-3.9303,-3.9437,-3.9481,-3.9468,-3.9682,-3.9756,-3.9906,-3.9935,-3.9982,-4.0012,-3.9983,-4.0113,-4.0124,-4.0135,-4.0176,-4.0192,-4.0008,-4.0008,-4.0008,-4.0008,0,-3.8893,-3.8992,-3.9057,-3.9184,-3.9255,-3.9354,-3.9428,-3.9493,-3.9523,-3.958,-3.9709,-3.9799,-3.9916,-3.9954,-3.9985,-4.011,-4.01,-4.0099,-4.0075,-4.0149,-4.0189,-4.0205,-4.0009,-4.0009,-4.0009,-4.0009,0,0,-3.8974,-3.9131,-3.9154,-3.9213,-3.9334,-3.9412,-3.9514,-3.9626,-3.9681,-3.9773,-3.986,-4.0003,-4.0004,-4.0072,-4.0112,-4.0176,-4.0265,-4.0168,-4.0172,-4.0183,-4.0408,-4.0407,-4.0424,-4.0278,-4.0281,-4.0284,-4.0399,0,-3.9077,-3.9256,-3.9312,-3.9463,-3.9555,-3.9592,-3.968,-3.9765,-3.9821,-3.9908,-3.9971,-4.0071,-4.0064,-4.0105,-4.0171,-4.024,-4.0311,-4.0232,-4.036,-4.0364,-4.0331,-4.0445,-4.0444,-4.0548,-4.0415,-4.0417,-4.0419,0,-3.9222,-3.9314,-3.9474,-3.9584,-3.9625,-3.9703,-3.9811,-3.9894,-3.9992,-4.0028,-4.0104,-4.0139,-4.0248,-4.0218,-4.0369,-4.0314,-4.037,-4.0412,-4.0418,-4.0431,-4.0395,-4.0461,-4.0583,-4.0598,-4.0444,-4.0442,-4.0441,0,-3.9264,-3.9429,-3.9546,-3.9595,-3.9726,-3.978,-3.9838,-3.9933,-3.9997,-4.0093,-4.0135,-4.0243,-4.0301,-4.0384,-4.0448,-4.042,-4.0594,-4.0569,-4.0627,-4.0626,-4.0662,-4.0658,-4.0794,-4.0699,-4.0698,-4.0698,-4.0698,0,-3.9374,-3.947,-3.9567,-3.9638,-3.9748,-3.9811,-3.9918,-3.9978,-4.0062,-4.0148,-4.0187,-4.0267,-4.0346,-4.0437,-4.0487,-4.0605,-4.0631,-4.0665,-4.0677,-4.0661,-4.0656,-4.0698,-4.0692,-4.0702,-4.0701,-4.07,-4.07,0,-3.9439,-3.9508,-3.9637,-3.9751,-3.9782,-3.9857,-3.9956,-4.0028,-4.0085,-4.0192,-4.0222,-4.0312,-4.0421,-4.0493,-4.0632,-4.0666,-4.0795,-4.0806,-4.0761,-4.0767,-4.0821,-4.0815,-4.0987,-4.1013,-4.0901,-4.0902,-4.0903,0,-3.9504,-3.9578,-3.97,-3.9759,-3.9816,-3.9911,-3.9977,-4.0043,-4.011,-4.0227,-4.0286,-4.0397,-4.0489,-4.0661,-4.0741,-4.0848,-4.0861,-4.0915,-4.0878,-4.0859,-4.0862,-4.0856,-4.0865,-4.092,-4.0921,-4.0922,-4.0922,0,-3.9612,-3.9642,-3.9734,-3.9839,-3.9915,-4.0001,-4.0088,-4.0134,-4.0216,-4.0289,-4.04,-4.0471,-4.0613,-4.0724,-4.0838,-4.09,-4.0925,-4.0933,-4.0952,-4.0936,-4.0907,-4.0924,-4.0776,-4.0929,-4.0928,-4.0928,-4.0927,-4.0927,-3.9679,-3.9747,-3.9843,-3.9944,-4.0016,-4.0096,-4.0169,-4.0235,-4.0328,-4.0447,-4.0481,-4.0597,-4.0695,-4.0851,-4.0915,-4.1007,-4.1002,-4.1029,-4.1037,-4.1042,-4.1042,-4.0893,-4.1029,-4.1028,-4.1028,-4.1028,-4.1028,0,-3.9789,-3.9852,-3.9945,-4.0063,-4.0144,-4.0159,-4.0256,-4.0322,-4.0423,-4.0511,-4.0601,-4.0729,-4.0836,-4.0924,-4.1035,-4.1093,-4.1107,-4.112,-4.1116,-4.113,-4.1041,-4.1013,-4.1106,-4.1106,-4.1106,-4.1106,-4.1106,-4.1106,-3.9855,-3.9971,-4.0013,-4.0165,-4.0229,-4.0341,-4.0394,-4.0469,-4.0539,-4.068,-4.0768,-4.0824,-4.0913,-4.1031,-4.1131,-4.1155,-4.1194,-4.1203,-4.1229,-4.1145,-4.1136,-4.1128,-4.1102,-4.1211,-4.1212,-4.131,-4.1311,-4.1312]}]]